[[{"header":{"parameterUnit":"m.s-1","parameterCategory":1,"la1":30.2991,"la2":30.254,"lo1":-89.0895,"lo2":-89.0444,"dy":0.0017,"dx":0.0017,"nx":28,"ny":28,"refTime":"2025-07-08T09:00:00:Z","depth":0,"parameterNumber":2,"parameterNumberName":"U-component_of_WINDS"},"data":[0,0,0,0,0,0,0,0,0,0,0,0,0,0,0,0,0,0,0,0,0,0,0,0,0,0,0,0,0,0,0,0,0,0,0,0,0,0,0,0,0,0,0,0,0,0,0,0,0,0,0,0,0,0,0,0,0,0,1.5557,1.5557,0,1.561,1.561,1.5611,1.5536,1.5533,1.553,1.5528,1.5587,1.5591,1.5596,0,0,0,0,0,0,0,0,0,0,0,0,0,1.5395,1.5398,1.5557,1.5557,1.5558,1.5609,1.561,1.5611,1.5536,1.5533,1.553,1.5527,1.5586,1.5591,1.5596,0,0,0,0,0,0,0,0,0,0,0,0,0,1.5459,1.5399,1.5556,1.5527,1.5524,1.5609,1.561,1.5611,1.5537,1.5533,1.5529,1.5525,1.5585,1.559,1.5597,1.5715,0,0,1.5615,1.5618,0,0,0,0,0,0,0,0,1.5455,1.5465,1.553,1.5529,1.5526,1.5562,1.5575,1.5646,1.5538,1.5532,1.5528,1.5523,1.5583,1.5589,1.5608,1.5718,1.572,1.5616,1.562,1.5622,1.5624,0,0,0,0,0,0,0,1.5451,1.5462,1.5578,1.5531,1.5529,1.5512,1.5517,1.5588,1.558,1.5532,1.5527,1.5534,1.5581,1.5602,1.5608,1.5721,1.5616,1.5621,1.5625,1.5627,1.5932,1.5936,0,0,0,0,0,0,1.5449,1.5459,1.5576,1.5579,1.548,1.5518,1.5523,1.5555,1.5578,1.5578,1.5537,1.553,1.5593,1.5601,1.561,1.5751,1.5622,1.5628,1.5631,1.5927,1.5933,1.5938,0,0,0,0,0,0,1.5446,1.546,1.5574,1.5517,1.5531,1.5525,1.5561,1.5558,1.5579,1.5582,1.5581,1.556,1.559,1.5602,1.5689,1.5752,1.5631,1.5636,1.5922,1.5929,1.5935,1.6033,0,0,0,0,0,0,1.5442,1.546,1.5504,1.5519,1.5534,1.5651,1.5565,1.5562,1.5589,1.558,1.5603,1.5603,1.5588,1.568,1.5695,1.5758,1.5641,1.5917,1.5925,1.5933,1.6024,1.6042,1.6058,0,0,0,0,0,1.5436,1.553,1.5506,1.5521,1.5588,1.5654,1.5663,1.5642,1.5594,1.5639,1.5641,1.5603,1.5742,1.569,1.5706,1.5772,1.5913,1.5923,1.5932,1.6017,1.6039,1.6057,0,0,0,0,0,0,1.5524,1.5532,1.5505,1.5606,1.563,1.5642,1.5697,1.5666,1.5706,1.5696,1.567,1.5676,1.577,1.5779,1.5721,1.5888,1.582,1.5833,1.5878,1.5899,1.5915,1.5912,1.5646,0,0,0,0,0,1.5555,1.5606,1.5611,1.57,1.5713,1.5703,1.5731,1.5713,1.5737,1.5748,1.5756,1.5783,1.5833,1.5866,1.5912,1.6025,1.603,1.6078,1.6095,1.6108,1.6121,1.6182,1.6204,1.597,1.597,1.597,0,0,1.562,1.563,1.5665,1.5718,1.5734,1.5789,1.5712,1.5774,1.5816,1.5758,1.584,1.5848,1.5876,1.5977,1.6021,1.5988,1.6186,1.6121,1.6132,1.6137,1.6194,1.6217,1.6236,1.5977,1.5976,1.5975,0,0,1.5767,1.5779,1.5855,1.5872,1.5897,1.589,1.5908,1.5924,1.5927,1.6009,1.5966,1.6016,1.6102,1.6124,1.6146,1.6301,1.6268,1.6317,1.6405,1.6465,1.6483,1.6499,1.6556,1.6576,1.6329,1.6329,1.633,0,1.5845,1.5925,1.5898,1.5963,1.5988,1.5936,1.6013,1.6032,1.6072,1.6091,1.6052,1.6159,1.6174,1.6279,1.6317,1.6336,1.6358,1.6315,1.6482,1.6498,1.6513,1.6566,1.6588,1.6335,1.6335,1.6334,1.6333,0,1.602,1.6077,1.6135,1.6173,1.6204,1.6275,1.6261,1.6296,1.6275,1.6273,1.6358,1.6374,1.6422,1.6446,1.6427,1.6549,1.6527,1.6486,1.6417,1.6542,1.6591,1.6612,1.6344,1.6342,1.634,1.6338,0,0,1.6225,1.6246,1.6268,1.6285,1.6308,1.6352,1.6421,1.6466,1.6498,1.6527,1.6585,1.6659,1.662,1.6646,1.6629,1.6681,1.6804,1.6633,1.6633,1.6665,1.6941,1.6973,1.6997,1.6781,1.6785,1.6788,1.6939,0,1.6373,1.649,1.6467,1.6583,1.6635,1.6586,1.6646,1.6668,1.6668,1.6713,1.6713,1.6766,1.6711,1.6726,1.6775,1.6778,1.6859,1.6767,1.6837,1.684,1.6833,1.7023,1.7057,1.72,1.6958,1.6962,1.6964,0,1.656,1.6594,1.6714,1.6729,1.675,1.6805,1.6845,1.6888,1.6913,1.6908,1.6937,1.6909,1.698,1.6909,1.7006,1.6944,1.6971,1.6977,1.6982,1.6989,1.691,1.7037,1.7244,1.7266,1.6994,1.6992,1.699,0,1.6699,1.6775,1.6856,1.6872,1.6891,1.6931,1.6941,1.6961,1.699,1.7025,1.7044,1.7088,1.7113,1.7148,1.7134,1.7084,1.7235,1.7163,1.7236,1.7236,1.7271,1.7269,1.7487,1.7287,1.7286,1.7286,1.7285,0,1.6866,1.6942,1.6919,1.697,1.7053,1.7027,1.7111,1.7116,1.7134,1.7186,1.7146,1.7196,1.7173,1.7222,1.7212,1.7295,1.7306,1.7306,1.7303,1.7311,1.7311,1.7329,1.732,1.7292,1.729,1.7289,1.7288,0,1.7036,1.7024,1.711,1.712,1.7124,1.7186,1.7195,1.7244,1.7239,1.7305,1.7319,1.7314,1.7369,1.7358,1.742,1.7413,1.7517,1.7501,1.7509,1.7505,1.7579,1.7573,1.7818,1.7849,1.7627,1.7629,1.7631,0,1.7145,1.7202,1.7217,1.7248,1.7261,1.7311,1.734,1.7317,1.7349,1.738,1.7425,1.7476,1.7516,1.7607,1.761,1.7657,1.7642,1.7725,1.7649,1.7655,1.7645,1.7642,1.7649,1.774,1.7743,1.7745,1.7747,0,1.7339,1.7329,1.7371,1.7412,1.7447,1.7478,1.7505,1.7533,1.7512,1.755,1.7605,1.7636,1.7698,1.775,1.7793,1.7806,1.7774,1.777,1.779,1.7799,1.7801,1.7802,1.7551,1.7765,1.7763,1.7762,1.7761,1.776,1.7482,1.753,1.7549,1.7597,1.7615,1.7641,1.7687,1.7688,1.7732,1.7779,1.7763,1.7827,1.785,1.7905,1.7922,1.7972,1.7942,1.797,1.7977,1.7985,1.7994,1.7792,1.798,1.7979,1.7979,1.7978,1.7978,0,1.7675,1.7684,1.7729,1.7767,1.7806,1.7769,1.7798,1.7833,1.7888,1.7912,1.7951,1.8015,1.8065,1.8071,1.8119,1.8158,1.8145,1.8172,1.8169,1.8173,1.8018,1.7997,1.8182,1.8182,1.8182,1.8182,1.8182,1.8182,1.778,1.786,1.7853,1.7942,1.795,1.801,1.803,1.8055,1.8073,1.8145,1.8186,1.8189,1.8206,1.8254,1.8299,1.83,1.832,1.8353,1.8349,1.8204,1.8184,1.8165,1.8144,1.8357,1.8358,1.8499,1.85,1.8501]},{"header":{"parameterUnit":"m.s-1","parameterCategory":1,"la1":30.2991,"la2":30.254,"lo1":-89.0895,"lo2":-89.0444,"dy":0.0017,"dx":0.0017,"nx":28,"ny":28,"refTime":"2025-07-08T09:00:00:Z","depth":0,"parameterNumber":3,"parameterNumberName":"V-component_of_WINDS"},"data":[0,0,0,0,0,0,0,0,0,0,0,0,0,0,0,0,0,0,0,0,0,0,0,0,0,0,0,0,0,0,0,0,0,0,0,0,0,0,0,0,0,0,0,0,0,0,0,0,0,0,0,0,0,0,0,0,0,0,0.8923,0.8922,0,0.8855,0.8854,0.8853,0.8779,0.8778,0.8777,0.8776,0.8705,0.8704,0.8704,0,0,0,0,0,0,0,0,0,0,0,0,0,0.8987,0.8986,0.8923,0.8922,0.8921,0.8855,0.8854,0.8853,0.878,0.8778,0.8777,0.8776,0.8706,0.8705,0.8703,0,0,0,0,0,0,0,0,0,0,0,0,0,0.8943,0.8985,0.8923,0.8876,0.8872,0.8855,0.8854,0.8853,0.878,0.8778,0.8777,0.8775,0.8706,0.8705,0.8703,0.8727,0,0,0.8699,0.8699,0,0,0,0,0,0,0,0,0.8945,0.8941,0.8884,0.888,0.8874,0.8824,0.885,0.8811,0.878,0.8815,0.8776,0.8774,0.8746,0.8741,0.8732,0.8723,0.872,0.8699,0.8698,0.8698,0.8697,0,0,0,0,0,0,0,0.8949,0.8943,0.8896,0.8883,0.8877,0.8858,0.885,0.8843,0.879,0.8812,0.8806,0.8799,0.8743,0.8733,0.873,0.8719,0.8699,0.8698,0.8697,0.8697,0.8726,0.8728,0,0,0,0,0,0,0.8959,0.8946,0.8898,0.8894,0.8907,0.8859,0.885,0.8842,0.879,0.8781,0.8801,0.8796,0.8737,0.8731,0.8727,0.8751,0.8698,0.8696,0.8696,0.8724,0.8726,0.8728,0,0,0,0,0,0,0.8961,0.8955,0.8901,0.8918,0.891,0.8859,0.8851,0.8841,0.8832,0.8782,0.8772,0.8801,0.8735,0.8729,0.8727,0.8748,0.8696,0.8695,0.8723,0.8725,0.8727,0.88,0,0,0,0,0,0,0.8963,0.8956,0.8965,0.8919,0.8909,0.8903,0.8852,0.8841,0.883,0.8823,0.8779,0.877,0.8733,0.873,0.8726,0.8745,0.8693,0.8721,0.8724,0.8726,0.8795,0.8804,0.8812,0,0,0,0,0,0.8965,0.8988,0.8966,0.8961,0.892,0.8905,0.8899,0.8856,0.8832,0.884,0.8808,0.8772,0.8746,0.873,0.8725,0.8744,0.8719,0.8723,0.8726,0.8792,0.8803,0.8812,0,0,0,0,0,0,0.9037,0.8981,0.8956,0.8965,0.894,0.8892,0.8901,0.8869,0.8851,0.8845,0.8793,0.8783,0.8788,0.8765,0.8749,0.8764,0.8727,0.873,0.8779,0.8789,0.8797,0.8802,0.8692,0,0,0,0,0,0.9055,0.9048,0.8998,0.9011,0.9,0.8953,0.8945,0.8914,0.8886,0.8875,0.8843,0.8816,0.8802,0.8794,0.8778,0.8791,0.878,0.8802,0.881,0.8817,0.882,0.8825,0.8834,0.874,0.874,0.874,0,0,0.909,0.9058,0.9057,0.9025,0.9002,0.8995,0.8945,0.894,0.8934,0.8874,0.8871,0.8846,0.8813,0.8819,0.882,0.8801,0.8844,0.8822,0.8828,0.8827,0.883,0.8839,0.8847,0.8742,0.8742,0.8742,0,0,0.915,0.9126,0.9133,0.9112,0.9078,0.9046,0.9048,0.9005,0.8986,0.8982,0.8937,0.8929,0.8906,0.8884,0.887,0.8922,0.8888,0.8918,0.8962,0.8968,0.8975,0.8981,0.9,0.9007,0.8921,0.8921,0.8922,0,0.9198,0.9187,0.9141,0.9139,0.9127,0.9072,0.9079,0.906,0.9022,0.9015,0.8993,0.8963,0.8936,0.8937,0.8949,0.894,0.894,0.8923,0.8978,0.8984,0.8989,0.9006,0.9013,0.8925,0.8925,0.8925,0.8924,0,0.9248,0.9241,0.9251,0.9217,0.9205,0.9207,0.9161,0.9155,0.9125,0.9096,0.9092,0.9058,0.9035,0.9032,0.9003,0.9028,0.9017,0.8988,0.895,0.9003,0.9018,0.9024,0.8931,0.893,0.8928,0.8927,0,0,0.9353,0.9293,0.9298,0.9282,0.924,0.9233,0.9233,0.921,0.9206,0.9181,0.918,0.9161,0.9133,0.9117,0.9085,0.909,0.9133,0.9059,0.9057,0.9074,0.9159,0.9182,0.9191,0.911,0.9111,0.9112,0.9162,0,0.9407,0.9404,0.9362,0.9371,0.9364,0.9312,0.9311,0.9285,0.9258,0.9247,0.9216,0.9204,0.9167,0.9158,0.916,0.9127,0.9149,0.9123,0.9108,0.9108,0.9119,0.9198,0.9223,0.9272,0.9167,0.9168,0.9169,0,0.9469,0.945,0.9458,0.9416,0.9411,0.9412,0.9388,0.9378,0.9347,0.9326,0.9309,0.9272,0.9268,0.9232,0.9226,0.9209,0.92,0.9183,0.9183,0.9181,0.9142,0.9199,0.9286,0.9294,0.9178,0.9177,0.9177,0,0.9546,0.9521,0.9523,0.951,0.9461,0.9463,0.9442,0.941,0.9399,0.9377,0.9369,0.9347,0.9336,0.9319,0.9277,0.9255,0.9276,0.9236,0.9258,0.9259,0.9266,0.9266,0.9354,0.9259,0.9259,0.9259,0.9259,0,0.9611,0.9618,0.9557,0.9558,0.9564,0.9516,0.9523,0.9497,0.9469,0.9463,0.9416,0.9412,0.9356,0.9346,0.9313,0.9312,0.9307,0.929,0.9281,0.9295,0.9297,0.9289,0.9285,0.9261,0.926,0.926,0.926,0,0.9698,0.9657,0.9656,0.9609,0.9597,0.9604,0.9564,0.9563,0.9532,0.9526,0.9521,0.9473,0.9458,0.9414,0.9388,0.9365,0.9375,0.9358,0.9386,0.938,0.9405,0.9404,0.9491,0.95,0.94,0.9401,0.9401,0,0.9743,0.9747,0.9701,0.9695,0.9676,0.9666,0.9655,0.9607,0.9597,0.9561,0.9564,0.9546,0.9528,0.9507,0.9468,0.9448,0.943,0.9462,0.9427,0.944,0.9431,0.9432,0.9432,0.9471,0.9472,0.9473,0.9474,0,0.9826,0.9806,0.9791,0.977,0.9758,0.9739,0.9717,0.9714,0.966,0.9651,0.9635,0.9622,0.9595,0.9577,0.955,0.9528,0.9492,0.9485,0.9489,0.9503,0.952,0.9512,0.9408,0.9484,0.9483,0.9482,0.9481,0.9481,0.9894,0.9895,0.9863,0.9849,0.9827,0.9807,0.9804,0.9773,0.9759,0.9734,0.9706,0.9694,0.9662,0.9622,0.9603,0.9592,0.9573,0.9578,0.958,0.9582,0.9589,0.9521,0.9586,0.9586,0.9586,0.9585,0.9585,0,0.9975,0.9952,0.9939,0.991,0.9898,0.9866,0.9839,0.9832,0.9822,0.9795,0.9779,0.9761,0.9743,0.9703,0.9682,0.9681,0.9664,0.9676,0.9676,0.9672,0.9607,0.9606,0.9691,0.9691,0.9691,0.9691,0.9691,0.969,1.0016,1.0017,0.9993,0.9982,0.9958,0.9946,0.9934,0.9916,0.9894,0.9876,0.9861,0.9836,0.9804,0.9779,0.9761,0.975,0.9744,0.9763,0.9746,0.9686,0.9676,0.9667,0.9666,0.9762,0.9762,0.9812,0.9812,0.9813]}]]